{"data":{"norad_id":81228,"epoch":"2026-05-21T02:11:30.928416Z","epoch_age_seconds":408887,"freshness":"STALE","line1":"1 81228U          26141.09133019  .00004956  00000+0  14723-2 0  9993","line2":"2 81228  70.5204 278.4992 0057794 126.1493 234.5008 14.42754319649067","mean_motion":14.42754319,"eccentricity":0.0057794,"inclination_deg":70.5204,"raan_deg":278.4992,"arg_perigee_deg":126.1493,"mean_anomaly_deg":234.5008,"bstar":0.0014723,"rev_number":64906,"period_min":99.809092999153,"perigee_km":708.21971155033,"apogee_km":790.60563270049,"semimajor_km":7127.5496721254,"source":"CELESTRAK","updated_at":"2026-05-25T13:38:09.447237Z"}}